sat.trackr.live / text

‹ back to catalog

SJ-11-02

NORAD 37765 · 2011-039A

PAYLOAD ACTIVE UNKNOWN

§ Identity

Operator
Country
PRC
Launch date
2011-07-29
Launch site
JSC
Launch vehicle
Mass (kg)
RCS (m²)
2.33

External: N2YO · Heavens-Above · Gunter

§ Orbital elements

Epoch: 2026-05-25T03:58:13.406016Z

Period
98.33 min
Inclination
98.2651°
Eccentricity
0.0010154
Mean motion
14.64450421 rev/d
Perigee alt
671.7 km
Apogee alt
686.0 km
Semi-major
7,057.0 km
B*
9.5493e-5
RAAN
35.0773°
Arg perigee
342.5212°
Mean anomaly
141.5936°
Rev number
79,058

§ Raw data

SJ-11-021 37765U 11039A   26145.16543294  .00000456  00000+0  95493-4 0  99922 37765  98.2651  35.0773 0010154 342.5212 141.5936 14.64450421790585

JSON: /api/v1/satellites/37765 · /tle

For live sub-satellite position, see the globe view (requires WebGL).

§ Visibility from observer

Set your observer location to see the next 7 days of passes ≥ 10°. The values pass through the URL so the page stays shareable.

No JS? Fill the form by hand. The geolocation button needs JavaScript.